Weather in Petrovka

Ukraine / Odesa District     47°00′05″N   31°08′35″E
temp.,
°C
wind,
m/s
gust,
m/s
humid.,
%
clouds,
%
prec.,
mm/h
press.,
hPa
HPBL,
m
22 april, thu
thu2200:00+9sw36857 0.0 1018107
03:00+9ssw348199 0.0 101992
06:00+9s347996 0.0 1019108
09:00+12s46695 0.0 1020426
12:00+16s66494 0.1 10201549
15:00+17s674889 0.3 10201693
18:00+15s675676 0.0 1019742
21:00+10sse511839 0.0 1020311
23 april, fri
fri2300:00+10s61385100 0.0 1019330
03:00+10s61385100 0.0 1018346
06:00+9s6118889 0.0 1017309
09:00+12ssw7977100 0.3 1017491
12:00+16ssw7862100 0.3 10171246
15:00+12wsw6883100 4.2 1016496
18:00+10wnw4686100 4.9 1016459
21:00+7n61086100 6.1 1019557
24 april, sat
sat2400:00+6nw47925 0.0 1019264
03:00+5wnw37920 0.0 1019183
06:00+4wnw37850 0.0 1020135
09:00+9wnw58595 0.0 1021784
12:00+10nw101054100 0.1 10221786
15:00+11wnw8113790 0.1 10222314
18:00+11nw710355 0.0 10222335
21:00+6nw34520 0.0 102454
25 april, sun
sun2500:00+5wnw22521 0.0 102411
03:00+4wsw22565 0.0 102415
06:00+3w22584 0.0 102311
09:00+9ssw34435 0.0 1023471
12:00+13ssw45355 0.0 10221796
15:00+14ssw764049 0.0 10201760
18:00+12ssw6747100 0.0 10201230
21:00+8ssw596168 0.0 1020222
26 april, mon
mon2600:00+7wsw4988100 0.4 1020383
03:00+6nnw7982100 0.8 1020538
06:00+5nw378231 0.1 1020328
09:00+8nnw56530 0.1 1021932
12:00+11nw57375 0.0 10211824
15:00+13wnw683282 0.0 10192522
18:00+12nw683543 0.0 10192332
21:00+8n345466 0.0 102066